GW0655 Weather Reports


Display with metric or nautical units.
time (UTC)temp
F
wind
direction
speed
MPH
gust
MPH
rain 1hr
in
rain 24hr
in
rain mn
in
humidity
%
barometer
mb
20260902155549 92 206 3.0 3.0 0.00 0.00 0.00 53 1017.2
20260902155048 93 176 3.0 5.0 0.00 0.00 0.00 53 1017.2
20260902154544 92 139 3.0 3.0 0.00 0.00 0.00 54 1017.2
20260902154039 93 197 6.0 7.0 0.00 0.00 0.00 52 1017.2
20260902153537 93 260 1.0 1.0 0.00 0.00 0.00 53 1017.2
20260902153033 93 190 3.0 3.0 0.00 0.00 0.00 54 1017.2
20260902152529 92 132 2.0 2.0 0.00 0.00 0.00 56 1017.2
20260902152025 91 255 1.0 1.0 0.00 0.00 0.00 57 1017.2
20260902151520 91 269 0.0 1.0 0.00 0.00 0.00 57 1017.2
20260902151019 90 274 2.0 3.0 0.00 0.00 0.00 58 1017.2
20260902150515 89 317 2.0 3.0 0.00 0.00 0.00 60 1017.2
20260902150010 90 258 2.0 2.0 0.00 0.00 0.00 59 1017.2
20260902145505 89 289 0.0 1.0 0.00 0.00 0.00 61 1017.2
20260902144959 88 246 2.0 2.0 0.00 0.00 0.00 63 1017.2
20260902144456 87 196 1.0 2.0 0.00 0.00 0.00 66 1017.2
20260902143950 87 201 6.0 8.0 0.00 0.00 0.00 65 1017.2
20260902143445 87 222 3.0 3.0 0.00 0.00 0.00 65 1017.5
20260902142940 87 202 3.0 5.0 0.00 0.00 0.00 66 1017.2
20260902142436 87 234 3.0 5.0 0.00 0.00 0.00 66 1017.2
20260902141932 88 287 2.0 2.0 0.00 0.00 0.00 65 1017.5
20260902141427 87 242 4.0 6.0 0.00 0.00 0.00 67 1017.2
20260902140926 87 193 4.0 7.0 0.00 0.00 0.00 67 1017.5
20260902140422 86 256 0.0 0.0 0.00 0.00 0.00 68 1017.2
20260902135921 86 237 2.0 3.0 0.00 0.00 0.00 69 1017.2
20260902135418 85 242 0.0 1.0 0.00 0.00 0.00 69 1017.2
20260902134916 84 254 1.0 1.0 0.00 0.00 0.00 70 1017.2
20260902134412 84 262 0.0 0.0 0.00 0.00 0.00 72 1017.2
20260902133913 84 265 1.0 1.0 0.00 0.00 0.00 72 1017.2
20260902133407 82 206 2.0 2.0 0.00 0.00 0.00 73 1017.5
20260902132902 82 250 2.0 2.0 0.00 0.00 0.00 75 1017.2
20260902132357 81 223 1.0 1.0 0.00 0.00 0.00 76 1017.2
20260902131852 81 217 2.0 3.0 0.00 0.00 0.00 76 1017.2
20260902131349 80 232 1.0 1.0 0.00 0.00 0.00 78 1017.2
20260902130848 80 227 2.0 2.0 0.00 0.00 0.00 79 1017.2
20260902130344 79 236 0.0 0.0 0.00 0.00 0.00 81 1016.9
20260902125839 79 264 0.0 1.0 0.00 0.00 0.00 81 1016.9
20260902125335 78 200 2.0 3.0 0.00 0.00 0.00 82 1016.9
20260902124831 78 250 1.0 1.0 0.00 0.00 0.00 82 1016.9
20260902124326 78 204 0.0 0.0 0.00 0.00 0.00 83 1016.9
20260902123821 77 206 1.0 2.0 0.00 0.00 0.00 84 1016.9
20260902123318 77 248 0.0 0.0 0.00 0.00 0.00 85 1016.9
20260902122816 77 242 0.0 0.0 0.00 0.00 0.00 85 1016.5
20260902122313 77 241 0.0 0.0 0.00 0.00 0.00 85 1016.9
20260902121812 77 242 0.0 0.0 0.00 0.00 0.00 85 1016.5
20260902121307 77 229 0.0 0.0 0.00 0.00 0.00 85 1016.5
20260902120803 77 213 1.0 1.0 0.00 0.00 0.00 84 1016.5
20260902120259 78 235 0.0 0.0 0.00 0.00 0.00 83 1016.5
20260902115754 77 247 0.0 0.0 0.00 0.00 0.00 83 1016.5
20260902115250 77 246 0.0 0.0 0.00 0.00 0.00 84 1016.5
20260902114746 77 246 0.0 0.0 0.00 0.00 0.00 85 1016.2
20260902114242 77 247 0.0 1.0 0.00 0.00 0.00 85 1016.2
20260902113742 77 270 0.0 0.0 0.00 0.00 0.00 84 1016.2
20260902113237 77 246 0.0 0.0 0.00 0.00 0.00 84 1016.2
20260902112736 77 240 0.0 0.0 0.00 0.00 0.00 84 1016.2
20260902112234 78 246 0.0 1.0 0.00 0.00 0.00 83 1016.2
20260902111729 78 218 1.0 1.0 0.00 0.00 0.00 82 1016.2
20260902111225 78 249 0.0 0.0 0.00 0.00 0.00 82 1016.2
20260902110720 78 245 0.0 0.0 0.00 0.00 0.00 82 1016.2
20260902110216 78 200 1.0 1.0 0.00 0.00 0.00 82 1016.2
20260902105715 78 242 0.0 0.0 0.00 0.00 0.00 81 1015.8
20260902105211 78 207 2.0 2.0 0.00 0.00 0.00 81 1016.2
20260902104706 78 237 1.0 1.0 0.00 0.00 0.00 81 1016.2
20260902104203 79 217 0.0 1.0 0.00 0.00 0.00 81 1016.2
20260902103701 78 216 2.0 2.0 0.00 0.00 0.00 81 1016.2
20260902103156 78 246 0.0 0.0 0.00 0.00 0.00 82 1016.2
20260902102652 78 224 0.0 0.0 0.00 0.00 0.00 82 1016.2
20260902102150 78 226 0.0 1.0 0.00 0.00 0.00 82 1016.2
20260902101645 78 248 0.0 0.0 0.00 0.00 0.00 82 1016.2
20260902101144 79 249 0.0 0.0 0.00 0.00 0.00 81 1016.2
20260902100639 79 247 0.0 0.0 0.00 0.00 0.00 81 1016.2
20260902100134 79 243 0.0 0.0 0.00 0.00 0.00 81 1016.2
20260902095633 79 192 2.0 2.0 0.00 0.00 0.00 81 1016.2
20260902095132 79 237 0.0 1.0 0.00 0.00 0.00 81 1016.2
20260902094628 79 209 0.0 0.0 0.00 0.00 0.00 81 1016.2
20260902094124 79 247 0.0 0.0 0.00 0.00 0.00 80 1016.2
20260902093624 79 225 0.0 0.0 0.00 0.00 0.00 80 1016.2
20260902093119 80 223 2.0 2.0 0.00 0.00 0.00 79 1016.2
20260902092618 80 248 0.0 0.0 0.00 0.00 0.00 79 1016.2
20260902092114 79 222 1.0 1.0 0.00 0.00 0.00 79 1016.2
20260902091609 79 250 0.0 0.0 0.00 0.00 0.00 79 1016.2
20260902091105 80 242 0.0 0.0 0.00 0.00 0.00 79 1016.2
20260902090601 80 249 0.0 0.0 0.00 0.00 0.00 79 1016.2
20260902090059 79 248 0.0 0.0 0.00 0.00 0.00 79 1016.2
20260902085554 79 237 1.0 1.0 0.00 0.00 0.00 79 1016.2
20260902085049 79 229 1.0 1.0 0.00 0.00 0.00 80 1016.2
20260902084545 79 251 1.0 1.0 0.00 0.00 0.00 81 1016.5
20260902084040 79 245 0.0 0.0 0.00 0.00 0.00 80 1016.2
20260902083530 79 224 0.0 0.0 0.00 0.00 0.00 80 1016.5
20260902083024 79 225 0.0 0.0 0.00 0.00 0.00 79 1016.2
20260902082520 80 242 0.0 0.0 0.00 0.00 0.00 79 1016.2
20260902082017 79 231 0.0 0.0 0.00 0.00 0.00 79 1016.5
20260902081513 80 237 0.0 1.0 0.00 0.00 0.00 79 1016.5
20260902081013 80 236 0.0 0.0 0.00 0.00 0.00 79 1016.5
20260902080508 79 244 0.0 0.0 0.00 0.00 0.00 79 1016.2
20260902080004 80 231 0.0 0.0 0.00 0.00 0.00 79 1016.5
20260902075459 80 226 0.0 0.0 0.00 0.00 0.00 78 1016.5
20260902074954 80 232 0.0 1.0 0.00 0.00 0.00 78 1016.5
20260902074450 80 241 0.0 0.0 0.00 0.00 0.00 78 1016.5
20260902073950 80 250 0.0 0.0 0.00 0.00 0.00 78 1016.5
20260902073446 80 234 0.0 0.0 0.00 0.00 0.00 77 1016.5
20260902072942 80 225 1.0 1.0 0.00 0.00 0.00 77 1016.5
20260902072438 80 252 0.0 0.0 0.00 0.00 0.00 77 1016.5
20260902071934 80 219 0.0 0.0 0.00 0.00 0.00 77 1016.5
20260902071433 81 224 0.0 0.0 0.00 0.00 0.00 76 1016.5
20260902070930 81 204 0.0 1.0 0.00 0.00 0.00 76 1016.5
20260902070425 81 255 0.0 0.0 0.00 0.00 0.00 76 1016.9
20260902065924 81 258 0.0 0.0 0.00 0.00 0.00 76 1016.9
20260902065419 81 265 0.0 0.0 0.00 0.00 0.00 75 1016.5
20260902064914 81 247 0.0 0.0 0.00 0.00 0.00 75 1016.9
20260902064410 81 229 0.0 0.0 0.00 0.00 0.00 75 1016.9
20260902063906 81 241 0.0 0.0 0.00 0.00 0.00 75 1016.9
20260902063405 82 251 0.0 0.0 0.00 0.00 0.00 74 1016.9
20260902062901 82 200 0.0 1.0 0.00 0.00 0.00 74 1016.5
20260902062359 82 235 0.0 0.0 0.00 0.00 0.00 74 1016.5
20260902061859 82 247 0.0 0.0 0.00 0.00 0.00 73 1016.9
20260902061355 82 253 0.0 0.0 0.00 0.00 0.00 72 1016.9
20260902060851 83 259 0.0 0.0 0.00 0.00 0.00 72 1016.5
20260902060346 83 229 1.0 1.0 0.00 0.00 0.00 72 1016.9
20260902055842 83 248 0.0 0.0 0.00 0.00 0.00 71 1016.5
20260902055338 83 246 0.0 1.0 0.00 0.00 0.00 70 1016.5
20260902054833 84 251 0.0 1.0 0.00 0.00 0.00 70 1016.5
20260902054329 84 235 0.0 0.0 0.00 0.00 0.00 69 1016.5
20260902053824 84 259 0.0 0.0 0.00 0.00 0.00 69 1016.5
20260902053319 84 220 1.0 1.0 0.00 0.00 0.00 69 1016.5
20260902052818 84 225 2.0 2.0 0.00 0.00 0.00 69 1016.2
20260902052313 84 223 1.0 1.0 0.00 0.00 0.00 69 1016.2
20260902051809 84 202 1.0 1.0 0.00 0.00 0.00 69 1016.5
20260902051308 84 228 0.0 0.0 0.00 0.00 0.00 68 1016.5
20260902050803 84 236 0.0 1.0 0.00 0.00 0.00 68 1016.5
20260902050303 84 233 0.0 0.0 0.00 0.00 0.00 68 1016.5
20260902045757 85 236 1.0 1.0 0.00 0.00 0.00 68 1016.5
20260902045253 85 249 0.0 1.0 0.00 0.00 0.00 67 1016.5
20260902044749 85 211 1.0 1.0 0.00 0.00 0.00 67 1016.5
20260902044244 86 134 1.0 1.0 0.00 0.00 0.00 65 1016.5
20260902043739 86 193 3.0 3.0 0.00 0.00 0.00 65 1016.5
20260902043235 86 192 3.0 5.0 0.00 0.00 0.00 65 1016.5
20260902042734 86 159 1.0 2.0 0.00 0.00 0.00 65 1016.5
20260902042229 86 233 1.0 1.0 0.00 0.00 0.00 64 1016.5
20260902041724 86 253 0.0 1.0 0.00 0.00 0.00 64 1016.5
20260902041218 86 215 2.0 2.0 0.00 0.00 0.00 63 1016.5
20260902040718 86 204 1.0 2.0 0.00 0.00 0.00 63 1016.5
20260902040214 86 166 4.0 5.0 0.00 0.00 0.00 63 1016.2
20260902035712 87 245 0.0 0.0 0.00 0.00 0.00 62 1016.2
20260902035208 87 212 1.0 1.0 0.00 0.00 0.00 61 1016.2
20260902034707 87 168 1.0 2.0 0.00 0.00 0.00 61 1016.2
20260902034206 87 205 0.0 1.0 0.00 0.00 0.00 60 1016.2
20260902033705 87 222 3.0 3.0 0.00 0.00 0.00 60 1016.2
20260902033200 87 151 1.0 2.0 0.00 0.00 0.00 60 1015.8
20260902032658 87 244 0.0 0.0 0.00 0.00 0.00 59 1015.8
20260902032154 87 233 1.0 1.0 0.00 0.00 0.00 59 1015.8
20260902031648 87 213 1.0 2.0 0.00 0.00 0.00 59 1015.8
20260902031144 88 226 1.0 1.0 0.00 0.00 0.00 58 1015.8
20260902030640 88 231 0.0 1.0 0.00 0.00 0.00 58 1015.8
20260902030139 88 226 0.0 1.0 0.00 0.00 0.00 58 1015.5
20260902025638 88 229 0.0 0.0 0.00 0.00 0.00 58 1015.5
20260902025134 88 131 1.0 2.0 0.00 0.00 0.00 57 1015.5
20260902024629 88 138 1.0 2.0 0.00 0.00 0.00 57 1015.5
20260902024124 89 126 1.0 1.0 0.00 0.00 0.00 57 1015.2
20260902023619 89 233 0.0 0.0 0.00 0.00 0.00 57 1015.2
20260902023109 89 159 0.0 1.0 0.00 0.00 0.00 56 1015.2
20260902022608 89 235 0.0 0.0 0.00 0.00 0.00 56 1014.8
20260902022104 89 239 0.0 0.0 0.00 0.00 0.00 56 1014.8
20260902021559 89 167 1.0 2.0 0.00 0.00 0.00 55 1014.5
20260902021054 89 214 0.0 1.0 0.00 0.00 0.00 55 1014.8
20260902020550 90 251 0.0 0.0 0.00 0.00 0.00 55 1014.5
20260902020046 90 133 1.0 2.0 0.00 0.00 0.00 54 1014.5
20260902015542 90 166 0.0 1.0 0.00 0.00 0.00 54 1014.5
20260902015037 90 168 0.0 1.0 0.00 0.00 0.00 54 1014.5
20260902014533 91 110 1.0 2.0 0.00 0.00 0.00 53 1014.5
20260902014028 91 153 2.0 2.0 0.00 0.00 0.00 53 1014.5
20260902013527 91 141 1.0 2.0 0.00 0.00 0.00 53 1014.1
20260902013023 91 155 1.0 1.0 0.00 0.00 0.00 52 1014.5
20260902012519 92 158 2.0 2.0 0.00 0.00 0.00 52 1014.1
20260902012014 92 187 3.0 3.0 0.00 0.00 0.00 51 1014.1
20260902011509 92 199 1.0 2.0 0.00 0.00 0.00 51 1014.1
20260902011009 93 278 2.0 2.0 0.00 0.00 0.00 50 1013.8
20260902010509 93 268 1.0 1.0 0.00 0.00 0.00 48 1014.5
20260902010004 94 118 6.0 7.0 0.00 0.00 0.00 48 1014.1
20260902005502 95 128 5.0 6.0 0.00 0.00 0.00 45 1013.8
20260902004959 95 181 5.0 7.0 0.00 0.00 0.00 44 1014.1
20260902004457 95 85 4.0 6.0 0.00 0.00 0.00 44 1014.1
20260902003953 95 149 5.0 6.0 0.00 0.00 0.00 43 1014.1
20260902003448 96 170 0.0 1.0 0.00 0.00 0.00 43 1014.1
20260902002944 96 235 1.0 2.0 0.00 0.00 0.00 42 1014.1
20260902002439 96 162 2.0 3.0 0.00 0.00 0.00 41 1014.1
20260902001938 97 95 0.0 1.0 0.00 0.00 0.00 41 1014.1
20260902001433 97 155 0.0 1.0 0.00 0.00 0.00 41 1014.1
20260902000928 97 64 2.0 2.0 0.00 0.00 0.00 40 1014.1
20260902000424 97 138 5.0 6.0 0.00 0.00 0.00 40 1014.1
20260901235918 97 143 4.0 6.0 0.00 0.00 0.00 40 1014.1
20260901235413 97 91 1.0 1.0 0.00 0.00 0.00 40 1014.1
20260901234908 98 115 2.0 2.0 0.00 0.00 0.00 40 1014.1
20260901234402 98 188 2.0 2.0 0.00 0.00 0.00 40 1014.1
20260901233857 98 228 0.0 0.0 0.00 0.00 0.00 41 1014.1
20260901233352 98 160 3.0 5.0 0.00 0.00 0.00 41 1014.1
20260901232848 98 134 2.0 3.0 0.00 0.00 0.00 41 1013.8
20260901232343 98 133 1.0 3.0 0.00 0.00 0.00 41 1014.1
20260901231839 98 157 4.0 6.0 0.00 0.00 0.00 41 1014.1
20260901231335 99 43 0.0 1.0 0.00 0.00 0.00 40 1013.8
20260901230831 98 59 0.0 1.0 0.00 0.00 0.00 41 1014.1
20260901230331 99 97 1.0 2.0 0.00 0.00 0.00 40 1014.1
20260901225826 99 99 0.0 0.0 0.00 0.00 0.00 41 1013.8
20260901225325 99 95 2.0 3.0 0.00 0.00 0.00 41 1013.8
20260901224821 98 111 1.0 1.0 0.00 0.00 0.00 41 1013.8
20260901224317 99 156 1.0 2.0 0.00 0.00 0.00 39 1013.8
20260901223813 99 185 2.0 3.0 0.00 0.00 0.00 39 1013.8
20260901223308 99 71 1.0 1.0 0.00 0.00 0.00 40 1013.8
20260901222804 100 133 1.0 1.0 0.00 0.00 0.00 39 1013.8
20260901222300 99 164 1.0 2.0 0.00 0.00 0.00 40 1014.1
20260901221756 98 85 1.0 2.0 0.00 0.00 0.00 41 1014.1
20260901221251 99 170 2.0 2.0 0.00 0.00 0.00 41 1014.1
20260901220751 99 153 2.0 5.0 0.00 0.00 0.00 39 1013.8
20260901220250 99 56 8.0 10.0 0.00 0.00 0.00 41 1014.1
20260901215749 100 167 2.0 2.0 0.00 0.00 0.00 39 1014.1
20260901215248 99 172 3.0 3.0 0.00 0.00 0.00 40 1014.1
20260901214747 102 134 6.0 7.0 0.00 0.00 0.00 37 1014.1
20260901214246 102 132 3.0 3.0 0.00 0.00 0.00 37 1014.1
20260901213741 102 150 1.0 1.0 0.00 0.00 0.00 37 1014.1
20260901213240 101 338 0.0 0.0 0.00 0.00 0.00 38 1014.1
20260901212735 101 21 3.0 3.0 0.00 0.00 0.00 39 1014.1
20260901212231 101 163 3.0 3.0 0.00 0.00 0.00 38 1014.1
20260901211725 101 348 1.0 2.0 0.00 0.00 0.00 38 1014.1
20260901211222 101 98 3.0 5.0 0.00 0.00 0.00 38 1014.5
20260901210718 101 145 3.0 5.0 0.00 0.00 0.00 39 1014.5
20260901210213 101 49 1.0 1.0 0.00 0.00 0.00 38 1014.5
20260901205709 100 68 0.0 1.0 0.00 0.00 0.00 39 1014.5
20260901205203 100 64 0.0 1.0 0.00 0.00 0.00 40 1014.8
20260901204659 98 302 3.0 3.0 0.00 0.00 0.00 42 1014.8
20260901204155 98 16 5.0 6.0 0.00 0.00 0.00 41 1014.8
20260901203655 98 261 1.0 1.0 0.00 0.00 0.00 42 1014.8
20260901203150 98 0 3.0 3.0 0.00 0.00 0.00 42 1015.2
20260901202649 98 211 0.0 0.0 0.00 0.00 0.00 41 1014.8
20260901202145 99 122 3.0 3.0 0.00 0.00 0.00 41 1015.2
20260901201641 100 38 0.0 1.0 0.00 0.00 0.00 40 1015.2
20260901201140 102 72 0.0 0.0 0.00 0.00 0.00 39 1015.2
20260901200634 101 129 0.0 1.0 0.00 0.00 0.00 39 1015.2
20260901200129 99 273 1.0 2.0 0.00 0.00 0.00 41 1015.5
20260901195627 101 300 1.0 1.0 0.00 0.00 0.00 41 1015.5
20260901195127 100 204 3.0 3.0 0.00 0.00 0.00 41 1015.5
20260901194622 99 253 1.0 1.0 0.00 0.00 0.00 41 1015.5
20260901194117 100 15 0.0 1.0 0.00 0.00 0.00 41 1015.5
20260901193613 97 177 1.0 2.0 0.00 0.00 0.00 43 1015.5
20260901193107 97 265 1.0 1.0 0.00 0.00 0.00 43 1015.8
20260901192602 97 221 1.0 1.0 0.00 0.00 0.00 43 1015.8
20260901192057 98 274 1.0 2.0 0.00 0.00 0.00 42 1016.2
20260901191553 98 25 1.0 2.0 0.00 0.00 0.00 43 1016.2
20260901191049 97 156 1.0 1.0 0.00 0.00 0.00 42 1015.8
20260901190544 99 138 2.0 3.0 0.00 0.00 0.00 42 1016.2
20260901190043 96 214 0.0 1.0 0.00 0.00 0.00 45 1016.2
20260901185537 96 79 1.0 2.0 0.00 0.00 0.00 45 1016.2
20260901185036 97 343 1.0 1.0 0.00 0.00 0.00 45 1016.2
20260901184531 99 338 2.0 3.0 0.00 0.00 0.00 44 1016.5
20260901184026 99 126 2.0 2.0 0.00 0.00 0.00 44 1016.2
20260901183521 98 240 0.0 1.0 0.00 0.00 0.00 45 1016.5
20260901183017 100 294 3.0 3.0 0.00 0.00 0.00 43 1016.5
20260901182513 99 57 1.0 2.0 0.00 0.00 0.00 43 1016.5
20260901182013 100 217 3.0 3.0 0.00 0.00 0.00 42 1016.9
20260901181512 98 293 2.0 2.0 0.00 0.00 0.00 43 1016.9
20260901181012 98 164 4.0 6.0 0.00 0.00 0.00 45 1016.9
20260901180510 98 268 1.0 1.0 0.00 0.00 0.00 43 1017.2
20260901180010 99 212 2.0 2.0 0.00 0.00 0.00 43 1017.2
20260901175504 98 184 0.0 1.0 0.00 0.00 0.00 44 1017.2
20260901174959 98 172 4.0 6.0 0.00 0.00 0.00 44 1017.2
20260901174455 99 69 2.0 2.0 0.00 0.00 0.00 43 1017.5
20260901173950 97 66 1.0 2.0 0.00 0.00 0.00 44 1017.5
20260901173446 97 44 1.0 2.0 0.00 0.00 0.00 43 1017.9
20260901172942 98 215 2.0 5.0 0.00 0.00 0.00 43 1017.5
20260901172437 97 142 5.0 6.0 0.00 0.00 0.00 43 1017.9
20260901171935 97 290 3.0 5.0 0.00 0.00 0.00 44 1017.9
20260901171433 98 185 1.0 6.0 0.00 0.00 0.00 43 1017.9
20260901170932 96 210 0.0 1.0 0.00 0.00 0.00 47 1017.9
20260901170428 95 310 1.0 2.0 0.00 0.00 0.00 48 1017.9
20260901165927 96 74 0.0 0.0 0.00 0.00 0.00 46 1018.2
20260901165422 95 255 0.0 0.0 0.00 0.00 0.00 47 1017.9
20260901164918 95 286 1.0 1.0 0.00 0.00 0.00 47 1018.2
20260901164418 94 164 5.0 6.0 0.00 0.00 0.00 48 1018.2
20260901163913 95 263 3.0 3.0 0.00 0.00 0.00 49 1018.2
20260901163408 96 146 3.0 3.0 0.00 0.00 0.00 50 1018.2
20260901162902 97 262 1.0 2.0 0.00 0.00 0.00 47 1018.2
20260901162402 96 217 1.0 1.0 0.00 0.00 0.00 47 1018.2
20260901161902 95 262 0.0 0.0 0.00 0.00 0.00 48 1018.5
20260901161355 95 283 1.0 1.0 0.00 0.00 0.00 50 1018.2
20260901160850 94 350 2.0 2.0 0.00 0.00 0.00 51 1018.5
20260901160347 95 156 3.0 5.0 0.00 0.00 0.00 51 1018.5